[[{"header":{"parameterUnit":"m.s-1","parameterCategory":2,"la1":30.2992,"la2":30.254,"lo1":-89.0895,"lo2":-89.0443,"dy":0.0025,"dx":0.0025,"nx":19,"ny":19,"refTime":"2026-04-20T03:00:00:Z","depth":"0","parameterNumber":2,"parameterNumberName":"U-component_of_CURRENTS"},"data":[0,0,0,0.3161,0.3164,0.3274,0.3274,0.3357,0.3358,0,0,0,0,0,0,0,0,0,0,0,0.3111,0.3111,0.3161,0.3164,0.3274,0.3274,0.3357,0.3358,0,0,0,0,0,0,0,0,0,0,0,0.311,0.3111,0.3112,0.3165,0.3274,0.3274,0.3357,0.3285,0,0,0,0,0,0,0,0,0,0,0.3184,0.3138,0.3111,0.3112,0.3166,0.3274,0.3274,0.3282,0.3289,0.3296,0,0.3318,0,0.3352,0.3363,0.3364,0,0,0,0.3149,0.3131,0.318,0.3112,0.3167,0.3273,0.322,0.3286,0.3294,0.3305,0.332,0.3324,0.3354,0.3364,0.3364,0.3467,0.3468,0,0,0.3143,0.3111,0.3174,0.3185,0.3203,0.3217,0.3224,0.3292,0.3291,0.332,0.3327,0.3355,0.3364,0.3365,0.3467,0.3467,0,0,0,0.3136,0.3107,0.3154,0.3181,0.3213,0.322,0.3228,0.3287,0.3309,0.3328,0.3356,0.3365,0.3366,0.3466,0.3467,0.3509,0,0,0,0.3132,0.3105,0.3151,0.313,0.3212,0.3257,0.3222,0.3303,0.3313,0.3356,0.3365,0.3367,0.3465,0.3466,0.3506,0.3512,0,0,0,0.3104,0.3101,0.312,0.3129,0.3187,0.3257,0.3281,0.3306,0.3331,0.3364,0.3367,0.3465,0.3466,0.3504,0.3509,0.3627,0,0,0,0.3058,0.3081,0.3119,0.3156,0.3186,0.3269,0.3281,0.3327,0.3353,0.3365,0.3466,0.3467,0.3504,0.3508,0.3623,0.3651,0.3669,0,0,0.3061,0.308,0.3105,0.3143,0.3215,0.3252,0.3331,0.3364,0.3375,0.3435,0.3438,0.3507,0.3509,0.3626,0.3719,0.3735,0,0,0,0.309,0.3109,0.3137,0.3191,0.3257,0.3327,0.3375,0.3408,0.3467,0.3403,0.3519,0.3519,0.3592,0.3602,0.3615,0.3684,0.3472,0.3472,0.3472,0.3033,0.3094,0.3135,0.322,0.3277,0.338,0.3441,0.3497,0.3502,0.3537,0.3563,0.3688,0.3697,0.3708,0.3778,0.3581,0.3581,0.3581,0.3581,0.3027,0.3049,0.3132,0.319,0.3286,0.3357,0.3504,0.3542,0.3672,0.3622,0.3693,0.3655,0.3725,0.3794,0.3584,0.3584,0.3583,0.3583,0.3583,0.2973,0.2991,0.3036,0.3126,0.322,0.3347,0.3495,0.3621,0.3696,0.3765,0.3836,0.3835,0.3892,0.383,0.383,0.3831,0.3831,0.3832,0.3832,0.2881,0.2935,0.2963,0.3071,0.3125,0.3275,0.351,0.3631,0.3822,0.3887,0.3888,0.3947,0.3765,0.3752,0.3841,0.3839,0.3838,0.3837,0.3837,0.2812,0.2835,0.2877,0.2923,0.3062,0.3162,0.3426,0.3713,0.389,0.3982,0.4128,0.3979,0.3981,0.397,0.3962,0.41,0.41,0.41,0.41,0.2742,0.2767,0.2787,0.2833,0.2938,0.31,0.3262,0.3561,0.3983,0.4174,0.4276,0.4214,0.42,0.4212,0.4195,0.419,0.4383,0.4384,0.4384,0.2689,0.2713,0.269,0.2746,0.285,0.2986,0.3088,0.3372,0.4033,0.4402,0.4375,0.4363,0.4273,0.4246,0.4255,0.4226,0.4213,0,0]},{"header":{"parameterUnit":"m.s-1","parameterCategory":2,"la1":30.2992,"la2":30.254,"lo1":-89.0895,"lo2":-89.0443,"dy":0.0025,"dx":0.0025,"nx":19,"ny":19,"refTime":"2026-04-20T03:00:00:Z","depth":"0","parameterNumber":3,"parameterNumberName":"V-component_of_CURRENTS"},"data":[0,0,0,-0.0162,-0.0163,-0.0235,-0.0236,-0.0365,-0.0366,0,0,0,0,0,0,0,0,0,0,0,-0.0133,-0.0133,-0.0161,-0.0163,-0.0235,-0.0236,-0.0365,-0.0366,0,0,0,0,0,0,0,0,0,0,0,-0.0133,-0.0133,-0.0133,-0.0163,-0.0235,-0.0236,-0.0365,-0.0304,0,0,0,0,0,0,0,0,0,0,-0.0231,-0.019,-0.0133,-0.0133,-0.0163,-0.0235,-0.0236,-0.0301,-0.0308,-0.0338,0,-0.0337,0,-0.0351,-0.0374,-0.0375,0,0,0,-0.0177,-0.0184,-0.0205,-0.0133,-0.0164,-0.0235,-0.0207,-0.0305,-0.0313,-0.0348,-0.0339,-0.0344,-0.0353,-0.0375,-0.0376,-0.0395,-0.0395,0,0,-0.0173,-0.015,-0.02,-0.021,-0.0167,-0.0204,-0.0209,-0.0309,-0.0311,-0.0339,-0.0347,-0.0355,-0.0376,-0.0377,-0.0396,-0.0395,0,0,0,-0.0152,-0.0147,-0.0166,-0.0204,-0.0213,-0.0206,-0.0211,-0.0307,-0.0312,-0.0348,-0.0357,-0.0377,-0.0378,-0.0397,-0.0396,-0.0253,0,0,0,-0.015,-0.0134,-0.0164,-0.0152,-0.021,-0.0255,-0.0206,-0.0306,-0.0317,-0.0356,-0.0377,-0.0379,-0.0397,-0.0396,-0.0258,-0.0175,0,0,0,-0.0132,-0.0133,-0.0136,-0.015,-0.0176,-0.0253,-0.0265,-0.0308,-0.0323,-0.0375,-0.038,-0.0398,-0.0396,-0.0263,-0.0185,-0.0132,0,0,0,-0.0115,-0.0078,-0.0135,-0.0096,-0.0175,-0.0169,-0.0265,-0.0283,-0.0316,-0.0377,-0.0397,-0.0396,-0.0265,-0.0191,-0.0137,-0.0023,0.0011,0,0,-0.005,-0.0069,-0.0043,-0.0096,-0.0051,-0.0161,-0.0124,-0.0219,-0.0303,-0.0372,-0.0372,-0.0256,-0.0185,-0.0133,0.0073,0.0105,0,0,0,-0.001,0.0012,0.0015,0.0022,-0.0006,-0.0019,-0.0118,-0.0164,-0.0222,-0.0315,-0.0263,-0.0222,-0.0194,-0.0137,-0.0111,-0.0275,-0.0388,-0.0388,-0.0388,0.0105,0.0095,0.0153,0.0139,0.0135,0.0073,0.0054,-0.0028,-0.0131,-0.0132,-0.0111,0.0024,0.0087,0.0107,-0.0063,-0.0129,-0.0128,-0.0128,-0.0127,0.0229,0.0272,0.0259,0.0306,0.0279,0.0283,0.0207,0.0141,0.0114,0.0012,0.0031,0.0006,0.0144,-0.0048,-0.0118,-0.012,-0.0121,-0.0122,-0.0123,0.031,0.0336,0.0351,0.0421,0.0463,0.0415,0.0485,0.0393,0.0256,0.0287,0.0299,0.0297,0.013,0.0283,0.0284,0.0284,0.0285,0.0285,0.0286,0.0388,0.0413,0.0485,0.0545,0.0601,0.0671,0.065,0.0646,0.058,0.0481,0.0481,0.0172,0.0148,0.0134,0.0295,0.0294,0.0292,0.0291,0.0291,0.0499,0.0498,0.0625,0.0692,0.0846,0.1018,0.0976,0.0999,0.0932,0.0923,0.0489,0.0562,0.0524,0.0502,0.0496,0.0741,0.0741,0.0741,0.0741,0.0574,0.058,0.076,0.0901,0.1077,0.1185,0.1406,0.1373,0.1008,0.0781,0.0578,0.0486,0.0475,0.0424,0.0404,0.039,0.0602,0.0602,0.0601,0.066,0.0705,0.085,0.0975,0.1178,0.1391,0.1632,0.1706,0.1093,0.0569,0.0329,0.0335,0.0164,0.016,0.0042,0.0028,-0.0009,0,0]}],[{"header":{"parameterUnit":"m.s-1","parameterCategory":2,"la1":30.2992,"la2":30.254,"lo1":-89.0895,"lo2":-89.0443,"dy":0.0025,"dx":0.0025,"nx":19,"ny":19,"refTime":"2026-04-20T03:00:00:Z","depth":"2","parameterNumber":2,"parameterNumberName":"U-component_of_CURRENTS"},"data":[0,0,0,0.3068,0.3071,0.3186,0.3186,0.3273,0.3274,0,0,0,0,0,0,0,0,0,0,0,0.3017,0.3018,0.3068,0.3071,0.3186,0.3186,0.3273,0.3274,0,0,0,0,0,0,0,0,0,0,0,0.3016,0.3017,0.3019,0.3072,0.3186,0.3186,0.3273,0.3198,0,0,0,0,0,0,0,0,0,0,0.3092,0.3048,0.3017,0.3019,0.3072,0.3186,0.3186,0.3194,0.3202,0.3209,0,0.3234,0,0.3268,0.328,0.328,0,0,0,0.3056,0.3042,0.3089,0.3019,0.3074,0.3186,0.313,0.3199,0.3208,0.3219,0.3236,0.324,0.327,0.3281,0.3281,0.3388,0.3388,0,0,0.305,0.3021,0.3083,0.3095,0.3113,0.3126,0.3134,0.3205,0.3207,0.3236,0.3243,0.3271,0.3281,0.3282,0.3387,0.3388,0,0,0,0.3042,0.3016,0.3062,0.309,0.3123,0.313,0.3138,0.3203,0.3224,0.3244,0.3272,0.3282,0.3283,0.3387,0.3387,0.3432,0,0,0,0.3037,0.3013,0.3059,0.304,0.3122,0.3171,0.3135,0.3218,0.3228,0.3272,0.3282,0.3284,0.3386,0.3387,0.3429,0.3436,0,0,0,0.301,0.301,0.303,0.3039,0.3099,0.3172,0.3195,0.3221,0.3246,0.3281,0.3284,0.3386,0.3387,0.3427,0.3433,0.3545,0,0,0,0.2967,0.2992,0.3029,0.3068,0.3098,0.3182,0.3195,0.3244,0.3273,0.3282,0.3386,0.3387,0.3426,0.3431,0.3542,0.3543,0.3559,0,0,0.2973,0.2992,0.3017,0.3054,0.3127,0.3164,0.3245,0.3282,0.3295,0.3354,0.3357,0.343,0.3432,0.3544,0.3613,0.3627,0,0,0,0.3003,0.3023,0.3051,0.3105,0.3172,0.3243,0.3293,0.3326,0.3389,0.3324,0.3442,0.3442,0.3512,0.3506,0.3517,0.3393,0.3393,0.3393,0.3393,0.2955,0.3013,0.3055,0.3137,0.3195,0.3299,0.336,0.3417,0.3424,0.3461,0.3488,0.3611,0.3603,0.3613,0.3505,0.3506,0.3506,0.3506,0.3506,0.2954,0.2975,0.3056,0.3114,0.3209,0.3282,0.3426,0.3465,0.3594,0.3547,0.3615,0.3562,0.3628,0.351,0.3509,0.3509,0.3508,0.3508,0.3508,0.2904,0.2922,0.2967,0.3057,0.3152,0.3277,0.3423,0.3547,0.3621,0.3689,0.374,0.3738,0.3658,0.3753,0.3753,0.3754,0.3754,0.3754,0.3755,0.2818,0.2871,0.2901,0.3008,0.3063,0.3211,0.3442,0.3558,0.3734,0.379,0.3791,0.3696,0.3688,0.3674,0.3763,0.3762,0.3761,0.376,0.3759,0.2753,0.2776,0.2819,0.2867,0.3005,0.3088,0.3354,0.3619,0.3789,0.3869,0.3873,0.3867,0.3865,0.3855,0.3845,0.3975,0.3975,0.3975,0.3975,0.2686,0.2711,0.2733,0.278,0.2882,0.3022,0.3127,0.332,0.362,0.3711,0.3721,0.3618,0.3617,0.3594,0.3589,0.3571,0.3629,0.3627,0.3626,0.2636,0.266,0.264,0.2696,0.2795,0.2895,0.2893,0.2897,0.3216,0.3599,0.3517,0.3979,0.3853,0.3842,0.3824,0.381,0.3787,0,0]},{"header":{"parameterUnit":"m.s-1","parameterCategory":2,"la1":30.2992,"la2":30.254,"lo1":-89.0895,"lo2":-89.0443,"dy":0.0025,"dx":0.0025,"nx":19,"ny":19,"refTime":"2026-04-20T03:00:00:Z","depth":"2","parameterNumber":3,"parameterNumberName":"V-component_of_CURRENTS"},"data":[0,0,0,-0.0048,-0.005,-0.0126,-0.0127,-0.0256,-0.0257,0,0,0,0,0,0,0,0,0,0,0,-0.0019,-0.002,-0.0048,-0.005,-0.0126,-0.0127,-0.0256,-0.0257,0,0,0,0,0,0,0,0,0,0,0,-0.0019,-0.0019,-0.002,-0.005,-0.0126,-0.0127,-0.0256,-0.0193,0,0,0,0,0,0,0,0,0,0,-0.0116,-0.0079,-0.0019,-0.002,-0.005,-0.0126,-0.0127,-0.019,-0.0197,-0.0226,0,-0.0226,0,-0.0241,-0.0265,-0.0266,0,0,0,-0.0064,-0.0073,-0.0093,-0.002,-0.0051,-0.0126,-0.0096,-0.0194,-0.0202,-0.0235,-0.0228,-0.0233,-0.0243,-0.0266,-0.0267,-0.0289,-0.0289,0,0,-0.006,-0.004,-0.0087,-0.0097,-0.0057,-0.0093,-0.0098,-0.0199,-0.0202,-0.0229,-0.0236,-0.0245,-0.0267,-0.0268,-0.029,-0.0289,0,0,0,-0.0038,-0.0037,-0.0054,-0.0092,-0.0101,-0.0095,-0.0101,-0.0198,-0.0203,-0.0237,-0.0246,-0.0267,-0.0269,-0.0291,-0.029,-0.0154,0,0,0,-0.0036,-0.0023,-0.0051,-0.0042,-0.0098,-0.0146,-0.0098,-0.0196,-0.0208,-0.0246,-0.0267,-0.027,-0.0291,-0.029,-0.0159,-0.0079,0,0,0,-0.0018,-0.0022,-0.0026,-0.004,-0.0067,-0.0144,-0.0156,-0.0199,-0.0213,-0.0266,-0.027,-0.0292,-0.029,-0.0164,-0.0088,-0.004,0,0,0,-0.0003,0.003,-0.0025,0.001,-0.0066,-0.0062,-0.0155,-0.0176,-0.021,-0.0268,-0.0291,-0.029,-0.0165,-0.0093,-0.0045,0.0056,0.0088,0,0,0.0056,0.0038,0.0061,0.0011,0.0054,-0.0053,-0.0021,-0.0116,-0.0199,-0.0265,-0.0266,-0.0157,-0.0088,-0.0041,0.0145,0.0175,0,0,0,0.0092,0.0113,0.0115,0.0122,0.0093,0.008,-0.0019,-0.0064,-0.0124,-0.0211,-0.0164,-0.0125,-0.0099,-0.005,-0.0026,-0.0282,-0.0283,-0.0283,-0.0283,0.0197,0.0189,0.0244,0.0233,0.0227,0.0165,0.0145,0.0063,-0.0037,-0.004,-0.0019,0.0106,0.0161,0.018,-0.0039,-0.0038,-0.0038,-0.0037,-0.0037,0.0314,0.0356,0.0345,0.039,0.0363,0.0364,0.0289,0.0224,0.0194,0.0096,0.0113,0.0085,0.0214,-0.0026,-0.0028,-0.003,-0.0031,-0.0032,-0.0032,0.039,0.0416,0.043,0.0498,0.0537,0.049,0.0557,0.0465,0.0329,0.0357,0.0362,0.036,0.019,0.0351,0.0352,0.0353,0.0353,0.0354,0.0354,0.0463,0.0488,0.0557,0.0615,0.0669,0.0736,0.0715,0.0708,0.0635,0.0535,0.0534,0.0236,0.0224,0.0211,0.0363,0.0362,0.036,0.036,0.0359,0.0569,0.0567,0.069,0.0756,0.0906,0.1066,0.1028,0.1037,0.0968,0.0952,0.0616,0.0607,0.0569,0.0549,0.0543,0.0772,0.0772,0.0772,0.0772,0.0639,0.0645,0.082,0.0957,0.1128,0.1226,0.1409,0.133,0.1102,0.0925,0.0918,0.0857,0.0838,0.0808,0.0781,0.0776,0.1067,0.1067,0.1067,0.0721,0.0765,0.0905,0.1028,0.1226,0.1418,0.1596,0.1518,0.1178,0.1073,0.0912,0.0803,0.069,0.0669,0.0595,0.0564,0.0545,0,0]}],[{"header":{"parameterUnit":"m.s-1","parameterCategory":2,"la1":30.2992,"la2":30.254,"lo1":-89.0895,"lo2":-89.0443,"dy":0.0025,"dx":0.0025,"nx":19,"ny":19,"refTime":"2026-04-20T03:00:00:Z","depth":"4","parameterNumber":2,"parameterNumberName":"U-component_of_CURRENTS"},"data":[0,0,0,0.2028,0.2033,0.2279,0.228,0.2477,0.2478,0,0,0,0,0,0,0,0,0,0,0,0.1951,0.1953,0.2027,0.2033,0.2278,0.228,0.2476,0.2478,0,0,0,0,0,0,0,0,0,0,0,0.195,0.1952,0.1954,0.2034,0.2278,0.228,0.2476,0.232,0,0,0,0,0,0,0,0,0,0,0.2097,0.2051,0.1951,0.1955,0.2036,0.2278,0.228,0.2314,0.233,0.2331,0,0.2385,0,0.243,0.2488,0.2489,0,0,0,0.2036,0.2039,0.2094,0.1955,0.2038,0.2278,0.2169,0.2324,0.2342,0.2351,0.2388,0.2396,0.2433,0.2489,0.249,0.2664,0.2665,0,0,0.2023,0.2002,0.2082,0.2106,0.212,0.2161,0.2176,0.2336,0.2365,0.2389,0.2401,0.2437,0.249,0.2491,0.2663,0.2664,0,0,0,0.1982,0.1993,0.2047,0.2096,0.2148,0.2168,0.2186,0.2359,0.2375,0.2404,0.2439,0.2491,0.2493,0.2663,0.2664,0.2722,0,0,0,0.1974,0.1969,0.2041,0.2032,0.2146,0.2275,0.2205,0.2365,0.2384,0.2438,0.2491,0.2494,0.2662,0.2663,0.2718,0.2723,0,0,0,0.1936,0.1965,0.1996,0.203,0.2134,0.2274,0.2301,0.2371,0.2405,0.2489,0.2495,0.2661,0.2663,0.2715,0.2719,0.2815,0,0,0,0.19,0.195,0.1997,0.2073,0.2131,0.2265,0.2301,0.2419,0.2494,0.2492,0.2662,0.2664,0.2714,0.2716,0.2812,0.2466,0,0,0,0.1927,0.1953,0.1995,0.2042,0.2152,0.223,0.2366,0.2481,0.2518,0.2599,0.2605,0.272,0.2719,0.2815,0.2576,0,0,0,0,0.1979,0.2011,0.2054,0.2141,0.224,0.2357,0.2472,0.2531,0.2657,0.2573,0.274,0.2738,0.2797,0.2585,0.2673,0.2672,0.2672,0.2672,0.2672,0.1958,0.2022,0.2099,0.2198,0.2295,0.2458,0.256,0.2662,0.2695,0.2766,0.2801,0.293,0.2709,0.283,0.283,0.2831,0.2831,0.2831,0.2831,0.1968,0.2,0.2119,0.2218,0.2352,0.2482,0.2664,0.2733,0.2898,0.2874,0.2931,0.2678,0.2837,0.2836,0.2835,0.2835,0.2834,0.2834,0.2833,0.1913,0.1937,0.2032,0.2182,0.2342,0.2516,0.2673,0.2836,0.294,0.3012,0.2839,0.2987,0.2967,0.3078,0.3078,0.3079,0.3079,0.308,0.308,0.1801,0.1895,0.1975,0.215,0.2256,0.2444,0.2712,0.2812,0.2972,0.2863,0.3057,0.3014,0.3006,0.2982,0.3087,0.3086,0.3085,0.3084,0.3084,0.171,0.1774,0.1869,0.1972,0.2189,0.2299,0.2591,0.2707,0.2803,0.2785,0.2793,0.2805,0.2759,0.2758,0.2722,0.2755,0.2751,0.2747,0,0.1629,0.1672,0.1776,0.1877,0.1988,0.2196,0.2236,0.2395,0.2545,0.2459,0.2805,0.2809,0.2816,0.2759,0.2751,0.2705,0,0,0,0.157,0.1617,0.1646,0.1767,0.187,0.2012,0.2232,0.221,0.2518,0.2503,0.2646,0.2672,0.2912,0.3109,0.3068,0.3058,0.3019,0,0]},{"header":{"parameterUnit":"m.s-1","parameterCategory":2,"la1":30.2992,"la2":30.254,"lo1":-89.0895,"lo2":-89.0443,"dy":0.0025,"dx":0.0025,"nx":19,"ny":19,"refTime":"2026-04-20T03:00:00:Z","depth":"4","parameterNumber":3,"parameterNumberName":"V-component_of_CURRENTS"},"data":[0,0,0,0.0186,0.0185,0.012,0.0119,0.0001,0.0,0,0,0,0,0,0,0,0,0,0,0,0.021,0.021,0.0186,0.0185,0.012,0.0119,0.0001,0.0,0,0,0,0,0,0,0,0,0,0,0,0.021,0.021,0.021,0.0185,0.012,0.0119,0.0001,0.0056,0,0,0,0,0,0,0,0,0,0,0.0123,0.0152,0.021,0.021,0.0185,0.012,0.0119,0.0059,0.0053,0.0025,0,0.0026,0,0.0014,-0.0007,-0.0008,0,0,0,0.0171,0.0158,0.0145,0.021,0.0184,0.012,0.0145,0.0056,0.0048,0.0017,0.0024,0.002,0.0012,-0.0008,-0.0009,-0.0056,-0.0056,0,0,0.0175,0.0188,0.015,0.0141,0.018,0.0148,0.0144,0.0052,0.0046,0.0023,0.0017,0.0011,-0.0009,-0.001,-0.0057,-0.0056,0,0,0,0.0195,0.0191,0.018,0.0145,0.0139,0.0146,0.0141,0.005,0.0048,0.0016,0.0009,-0.0009,-0.0011,-0.0057,-0.0057,0.0046,0,0,0,0.0196,0.0203,0.0183,0.0188,0.0141,0.0098,0.0142,0.0054,0.0044,0.001,-0.001,-0.0012,-0.0057,-0.0057,0.0043,0.0106,0,0,0,0.0211,0.0204,0.0202,0.0189,0.0168,0.0099,0.0091,0.0052,0.004,-0.0008,-0.0012,-0.0058,-0.0057,0.004,0.0099,0.0121,0,0,0,0.0218,0.0237,0.0203,0.022,0.0169,0.0161,0.0092,0.0067,0.0033,-0.001,-0.0057,-0.0057,0.0039,0.0095,0.0118,0.0157,0,0,0,0.0252,0.0241,0.0253,0.0222,0.0245,0.0168,0.0178,0.01,0.0033,-0.0033,-0.0034,0.0044,0.0099,0.0121,0.0199,0,0,0,0,0.027,0.0284,0.0283,0.0285,0.0261,0.0246,0.0168,0.0129,0.0071,0.0018,0.003,0.0061,0.0072,0.0083,-0.0053,-0.0053,-0.0053,-0.0053,-0.0053,0.0332,0.0328,0.0362,0.0355,0.0344,0.0294,0.0272,0.0202,0.0127,0.0117,0.0134,0.021,0.0225,0.011,0.011,0.0111,0.0111,0.0112,0.0112,0.0402,0.0429,0.0427,0.0457,0.0439,0.0434,0.0365,0.0315,0.0277,0.0209,0.0213,0.0178,0.0122,0.012,0.0118,0.0117,0.0116,0.0116,0.0115,0.0447,0.0464,0.0482,0.0534,0.0565,0.0528,0.0566,0.0495,0.0379,0.0393,0.0367,0.0273,0.0275,0.0383,0.0384,0.0384,0.0384,0.0385,0.0385,0.0485,0.051,0.0564,0.0615,0.0662,0.0709,0.0689,0.0663,0.0556,0.0499,0.0422,0.03,0.0292,0.0289,0.0391,0.039,0.0389,0.0388,0.0388,0.0538,0.055,0.0641,0.0699,0.0816,0.0858,0.0853,0.0782,0.0755,0.0679,0.0531,0.0523,0.0486,0.0472,0.0474,0.0635,0.0636,0.0637,0,0.0574,0.0584,0.0714,0.082,0.0928,0.0948,0.0956,0.091,0.0755,0.074,0.0718,0.0555,0.0546,0.0505,0.0494,0.0499,0,0,0,0.0614,0.0652,0.0748,0.085,0.0972,0.0972,0.096,0.0922,0.0786,0.0761,0.0659,0.0653,0.0548,0.0409,0.033,0.0319,0.0311,0,0]}]]